Location: Lafig�re
(44.4503°N, 4.0357°E)
Time: 09:51:23
(UTC+00:00)

Cosmos 2150 Rocket - Pass Details

Date: 24 January 2021
Orbit: 748 x 808 km, 74.0° (Epoch: 07 March)

Event Time Altitude Azimuth Distance (km) Brightness Sun altitude
Rises 19:10:24 0° 183° (S) 3,179 7.3 -26.3°
Reaches altitude 10° 19:12:48 10° 178° (S) 2,261 6.4 -26.7°
Enters shadow 19:13:18 13° 176° (S) 2,081 6.2 -26.8°
